Location: Unspecified
(47.1121°N, 116.3927°W)
Time: 23:08:51
(UTC-08:00)

CZ-3 Stage 3 - Visible Passes

Search period start: 17 February 2018 00:00
Search period end: 27 February 2018 00:00
Orbit: 435 x 34761 km, 31.0° (Epoch: 17 February)

Date Brightness Start Highest point End Pass type
(mag) Time Alt. Az. Time Alt. Az. Time Alt. Az.
18 Feb 6.7 10:51:40 10° SSW 12:48:23 24° S 13:01:47 10° ESE visible
21 Feb 6.7 10:26:01 10° SSW 12:39:07 26° S 12:52:39 10° ESE visible
22 Feb 9.4 08:01:04 10° SE 08:25:16 11° SE 08:41:53 10° SE visible
24 Feb 6.7 09:58:05 10° SSW 12:29:50 27° S 12:43:29 10° ESE visible
25 Feb 9.4 07:36:11 10° SSE 08:16:36 12° SE 08:39:31 10° SE visible
